Wind_Speed
18 17 14 4 3 2 4 10 10 16 9 5 5 11 15 9 8 8 9 27 32 34 31 28 29 30 28 25 25 24 23 22 21 21 21 20 19 18 18 16 15 13 12 11 10 9 8 7 7
16 17 4 1 2 1 6 17 11 4 5 7 6 10 17 16 14 8 16 24 32 34 31 28 29 30 29 27 24 24 23 22 21 21 20 20 19 17 16 15 14 13 11 10 9 8 7 7 6
15 11 1 3 3 6 6 4 3 8 7 9 6 3 8 7 11 6 20 25 31 33 31 29 29 31 31 28 25 23 22 22 20 20 19 19 19 17 15 14 13 12 10 9 8 7 7 6 5
7 4 3 1 8 14 15 10 8 9 9 7 6 9 6 14 4 10 24 21 23 29 30 30 29 30 32 31 28 24 23 22 20 19 19 18 18 16 15 14 13 11 9 8 7 7 6 5 5
8 2 2 4 8 12 15 11 2 7 8 7 7 5 8 11 17 15 16 24 21 29 29 32 31 30 30 31 30 28 25 23 21 19 18 17 17 15 14 13 11 10 9 8 6 6 5 5 3
3 2 3 5 9 16 16 9 5 2 6 11 9 4 4 13 13 11 14 16 27 31 29 32 30 30 29 31 29 28 24 23 22 20 19 17 16 15 13 12 11 10 9 7 6 4 4 4 4
4 2 7 10 15 19 19 5 7 7 5 7 5 4 1 8 10 13 7 3 28 32 33 33 32 29 29 29 30 29 27 22 21 19 18 17 16 15 13 11 10 9 7 7 6 5 6 6 6
4 3 13 13 13 17 21 6 7 8 7 7 2 2 3 2 13 12 16 9 26 37 35 36 35 31 29 28 28 28 27 24 20 19 18 17 16 15 13 12 11 9 8 7 7 8 9 10 9
6 9 12 15 18 16 23 7 5 9 6 7 6 4 8 10 13 7 15 17 24 30 35 36 37 32 29 27 27 27 26 24 23 19 18 17 17 15 14 12 10 9 9 9 10 12 12 12 13
7 10 16 10 11 15 21 16 10 2 1 6 3 4 8 9 16 8 8 10 28 15 15 36 38 34 26 24 24 27 28 26 25 22 20 18 16 15 13 12 12 11 11 13 14 14 14 16 17
11 16 11 11 18 23 25 24 18 8 8 7 8 5 1 10 8 6 7 13 21 14 8 18 35 37 30 24 26 26 28 28 25 24 22 20 18 15 12 13 12 13 14 17 18 18 18 19 20
12 16 18 18 21 20 16 14 16 10 15 24 16 4 2 7 7 7 6 8 9 15 14 22 25 36 33 25 24 27 26 29 29 27 25 23 22 21 18 16 16 16 16 18 20 21 19 18 18
11 13 17 17 20 21 14 18 14 8 5 11 6 2 3 3 0 8 17 5 10 10 15 23 30 31 38 30 28 26 28 27 30 29 28 27 26 25 22 21 20 19 18 19 17 19 17 17 18
7 12 13 16 14 9 11 16 5 7 5 6 5 10 8 7 7 7 16 11 10 10 15 17 33 32 32 29 29 28 28 29 28 29 30 27 27 28 26 23 24 22 21 22 21 20 20 21 21
10 9 10 10 6 5 6 12 18 4 8 7 7 5 8 10 13 12 16 22 20 14 15 33 34 32 34 26 24 16 26 28 28 28 26 28 27 24 24 25 28 24 21 18 22 20 18 25 22
8 8 6 7 8 9 3 19 14 8 9 11 8 7 8 10 11 19 18 14 21 18 14 12 27 35 34 34 29 19 11 17 30 29 26 25 29 28 25 26 26 25 25 23 22 20 19 19 19
5 9 9 11 13 14 13 24 13 9 10 10 8 5 14 9 6 7 3 18 19 17 13 8 8 27 36 32 31 27 22 16 11 33 21 29 28 30 29 26 28 22 21 23 23 24 20 24 26
8 8 11 16 16 13 23 23 20 10 12 10 5 6 1 1 6 7 17 22 22 17 13 8 3 9 31 32 27 26 30 28 21 16 17 14 26 32 30 29 30 26 26 21 25 24 23 23 25
16 17 18 12 12 13 8 8 5 5 3 6 8 8 6 7 6 9 19 19 19 12 8 7 8 8 20 28 31 29 27 25 33 32 23 15 14 30 26 31 33 31 29 27 25 28 27 24 23
14 12 8 8 14 11 10 8 6 6 5 6 7 9 9 8 9 9 24 20 15 12 7 4 4 7 9 18 19 19 25 24 35 31 35 28 25 19 24 30 33 31 28 26 28 25 23 21 23
8 5 5 12 15 15 8 7 4 5 6 12 16 10 9 12 11 10 11 25 25 19 15 8 3 3 6 12 14 15 16 16 16 22 28 19 22 23 29 31 33 32 29 35 30 24 18 22 16
8 9 14 16 10 6 4 6 7 5 11 13 19 20 13 10 9 9 14 14 27 23 20 15 8 5 4 7 15 24 18 15 26 24 25 26 24 20 29 30 30 31 32 31 23 22 14 17 17
11 9 12 5 6 6 9 5 7 6 15 18 11 16 15 13 8 10 11 20 22 22 18 14 10 8 9 6 13 17 21 27 17 24 24 21 20 25 27 29 35 28 29 28 25 22 18 18 17
8 3 8 7 2 5 6 6 19 14 17 19 10 10 10 10 11 10 14 24 18 19 19 17 12 7 8 8 9 10 12 14 17 19 19 25 20 16 23 33 26 24 25 25 28 18 23 19 20
8 2 3 3 5 12 5 10 21 11 16 23 14 13 11 10 10 12 12 10 16 12 13 15 15 13 9 9 8 8 8 10 12 15 13 14 12 24 33 32 26 26 27 32 30 26 31 27 30
19 2 3 6 4 8 10 6 7 7 13 10 9 9 9 9 9 12 12 12 20 19 17 19 14 11 7 5 7 9 12 12 15 17 14 15 17 18 20 26 40 40 32 37 33 27 36 35 32
10 5 9 9 9 2 4 10 15 18 7 7 7 8 8 8 9 10 10 15 22 26 22 18 15 13 16 17 13 13 15 15 17 19 18 19 17 13 16 21 28 29 33 41 41 32 35 25 33
6 6 5 1 4 5 6 11 7 9 5 5 5 7 8 6 8 7 7 12 23 29 26 28 25 22 22 22 20 20 19 20 21 21 21 21 24 23 25 25 22 25 33 34 33 31 27 40 45
7 4 3 7 4 4 3 5 5 5 9 10 8 6 3 7 5 6 7 12 13 14 10 6 3 11 22 23 23 23 23 24 24 23 23 23 23 25 27 27 27 27 30 32 38 45 40 41 37
4 7 4 1 4 5 4 10 3 4 9 11 13 11 13 9 11 4 8 12 19 20 15 10 7 5 3 7 20 25 29 29 30 26 26 24 25 26 28 28 29 28 29 31 37 41 38 41 36
Wind_Direction
313 328 314 292 47 114 247 253 256 287 306 291 34 66 88 68 127 122 114 137 145 153 159 163 157 151 150 151 151 149 148 145 143 139 138 137 136 136 133 129 128 126 123 120 113 106 99 94 93
313 334 316 266 125 292 265 239 252 333 350 330 57 105 69 70 84 93 113 143 146 154 159 165 163 155 152 153 154 153 153 150 147 143 144 142 140 140 137 132 129 125 124 117 113 108 104 103 102
310 303 24 171 193 223 243 52 306 342 34 355 352 33 98 120 59 96 144 146 149 152 159 168 168 161 154 154 156 158 157 154 151 149 150 147 145 145 141 135 130 129 128 125 121 115 111 108 113
313 331 315 149 261 264 256 285 350 356 345 21 347 74 46 98 84 114 147 148 141 154 163 170 172 167 158 158 158 164 161 159 157 157 156 152 148 150 147 141 140 137 135 134 131 128 127 127 131
281 287 256 258 259 265 272 265 36 337 330 330 355 60 94 97 116 126 134 164 156 162 166 173 175 172 165 162 163 164 165 164 162 163 161 157 153 155 156 149 147 147 148 149 148 150 150 152 159
285 148 249 264 264 260 267 237 159 174 319 317 344 333 83 67 59 110 134 174 172 162 167 174 177 175 173 167 166 166 168 166 167 168 167 165 162 162 165 164 162 163 162 162 170 184 194 199 208
201 253 251 249 257 270 272 234 178 172 174 278 318 24 136 71 36 28 119 161 179 169 164 171 178 178 177 177 171 171 169 171 171 172 171 172 170 174 176 179 176 179 180 183 196 214 231 236 243
221 234 258 255 260 264 268 256 181 160 210 216 83 301 153 157 51 21 20 334 161 172 168 169 176 178 178 180 179 174 174 173 176 179 178 178 179 183 188 190 193 195 200 210 222 235 241 246 250
258 238 244 246 257 270 283 289 232 207 166 230 169 190 174 123 87 40 359 9 126 162 168 170 173 179 179 177 182 180 178 178 181 187 186 185 188 191 197 201 207 214 223 232 237 246 251 256 255
214 241 239 254 267 275 280 286 273 214 251 296 288 285 91 97 105 88 344 355 77 125 162 172 174 179 177 179 177 184 180 182 185 190 193 193 194 196 209 212 223 224 235 244 249 254 257 260 263
237 244 253 248 241 255 266 275 282 228 143 252 268 221 113 83 78 50 16 77 91 99 137 183 175 176 176 180 185 186 186 185 189 193 198 196 196 199 204 217 219 232 243 250 254 256 259 267 272
240 244 239 251 260 259 260 283 290 293 193 206 204 243 51 64 31 348 339 110 92 111 128 190 186 175 174 188 191 193 195 191 192 195 199 198 198 199 204 217 226 235 246 257 257 256 261 266 272
255 257 254 249 246 259 269 273 275 290 196 195 124 355 240 113 91 294 301 191 151 124 146 180 186 183 173 183 194 196 202 203 201 198 201 202 203 201 204 211 224 234 240 247 254 251 255 261 263
254 253 252 255 253 247 256 268 293 290 300 172 213 228 199 198 207 240 267 237 170 153 153 176 186 185 179 178 190 195 202 208 209 207 205 209 206 205 204 210 220 231 238 247 250 252 257 264 265
291 297 295 283 282 260 340 291 269 266 292 271 269 223 205 210 214 217 246 242 183 180 150 162 182 187 182 167 161 166 202 207 205 210 210 212 215 211 210 217 221 226 238 246 255 259 261 260 264
306 296 289 285 285 276 205 261 276 260 246 262 257 248 250 230 200 214 235 220 180 177 155 164 185 183 188 191 191 185 160 210 210 208 207 212 215 216 215 223 229 233 242 247 256 258 252 259 259
265 261 261 270 242 245 209 248 245 240 273 271 259 263 241 224 196 152 247 154 163 163 177 135 191 199 192 195 199 212 202 192 198 210 206 221 215 214 213 220 231 232 240 244 250 254 251 256 262
255 244 244 248 260 247 235 239 230 208 220 241 291 210 133 179 174 150 144 142 143 152 172 194 194 214 205 190 186 202 221 203 195 200 188 207 216 221 214 226 233 232 236 243 244 254 255 257 262
248 265 271 279 297 326 276 204 175 228 255 283 249 211 207 217 193 169 156 136 129 131 141 173 211 234 207 197 191 197 206 211 209 203 208 206 229 218 218 231 237 242 242 245 249 256 264 263 265
266 265 285 306 307 305 294 280 237 220 252 245 243 252 216 203 187 160 149 149 143 141 145 160 201 222 219 211 206 201 203 207 215 220 217 219 237 244 237 239 243 242 239 241 245 246 262 274 279
291 296 308 293 295 294 301 300 253 265 255 256 264 232 220 200 192 179 161 154 149 153 160 164 203 237 233 251 232 223 228 204 222 224 229 206 230 244 250 245 242 247 248 246 249 255 264 270 266
287 291 284 262 274 261 359 281 276 272 281 264 246 240 228 213 189 181 173 168 163 158 152 152 160 183 199 223 245 239 233 223 211 215 229 225 215 247 242 243 239 238 240 237 240 259 267 274 262
266 267 273 314 322 343 301 323 289 273 273 275 265 214 221 221 186 134 127 142 154 163 163 162 181 211 236 227 217 230 235 237 239 207 230 236 231 230 239 241 239 223 232 250 253 257 256 252 266
279 322 347 339 353 292 265 242 280 263 260 270 258 173 142 125 124 129 124 121 113 152 163 167 174 190 220 226 232 234 233 238 243 232 217 228 233 227 230 225 220 233 236 247 240 235 235 229 254
234 129 286 310 288 254 259 274 255 287 267 260 250 145 141 143 137 125 123 122 134 154 172 182 173 198 207 219 238 257 262 256 254 256 221 219 221 233 235 237 228 234 246 248 243 235 229 259 278
307 124 238 201 221 279 320 229 254 266 318 54 75 106 115 128 138 146 148 153 161 175 185 173 186 164 167 206 258 243 251 267 272 274 278 272 255 263 267 263 251 251 254 254 244 246 250 262 246
203 217 219 270 273 357 227 262 276 273 317 116 124 117 131 140 144 144 163 165 173 183 187 176 172 200 228 238 241 255 268 271 277 280 279 270 268 267 276 271 262 259 252 249 253 251 271 278 261
185 168 220 342 193 224 236 245 270 50 27 345 8 141 131 125 147 156 158 152 175 193 195 190 201 209 219 230 244 255 252 258 261 265 265 271 277 275 270 263 258 258 251 262 250 246 258 258 254
343 327 327 188 188 196 289 257 204 89 44 2 58 350 16 117 151 140 148 165 170 140 139 142 160 230 226 230 242 248 255 259 260 262 265 264 266 266 270 269 266 259 259 260 248 247 235 249 245
23 51 91 257 211 267 211 252 252 93 60 28 358 354 331 355 333 240 214 205 180 177 181 177 187 212 250 287 263 256 256 250 254 255 253 259 264 269 273 271 274 268 261 255 247 235 229 230 233
Height
769 765 766 766 797 793 800 777 745 746 740 720 710 720 737 727 742 775 740 736 739 747 753 758 760 760 765 771 775 779 784 787 789 792 795 797 801 804 805 807 809 811 813 815 816 817 819 820 820
767 766 765 769 802 816 801 753 755 742 728 715 707 718 731 743 724 735 742 743 738 745 752 758 761 761 765 771 777 780 784 788 791 793 796 798 801 805 807 808 810 812 815 816 817 818 819 820 821
769 768 776 785 795 808 789 752 746 734 720 721 719 704 725 740 729 734 738 740 742 745 750 757 762 761 762 770 776 782 786 789 792 795 797 799 801 805 808 810 812 813 815 817 818 819 820 821 822
771 767 771 792 798 776 762 753 746 738 726 718 720 732 727 725 729 732 737 741 740 744 750 758 763 764 761 766 772 780 784 789 794 797 799 801 803 806 808 810 811 814 816 818 818 819 820 821 821
772 772 792 793 788 767 749 741 737 743 739 733 723 737 741 730 729 732 735 735 738 745 748 755 761 764 764 766 771 777 782 788 792 797 801 803 804 807 810 810 813 814 816 817 819 819 820 820 822
781 771 799 801 787 760 743 736 735 737 735 732 732 731 742 732 731 733 733 735 735 738 746 754 760 763 765 766 772 776 783 786 791 795 800 803 805 807 810 811 812 814 815 817 819 821 821 821 821
779 784 794 788 780 764 745 731 737 735 736 738 727 741 739 732 731 731 732 733 735 738 742 749 756 762 765 769 770 775 780 787 791 795 798 802 804 807 809 812 813 815 816 818 819 821 822 821 822
767 779 784 777 780 767 734 733 727 731 736 721 724 743 746 730 730 729 729 731 732 737 740 744 752 759 764 769 772 776 780 785 791 796 797 800 803 807 809 812 813 815 817 818 819 820 820 821 821
761 782 783 777 770 759 732 742 726 718 725 726 720 726 727 725 727 732 731 730 736 739 739 743 749 757 763 767 773 777 780 784 789 795 798 800 802 805 809 811 814 815 816 818 817 818 819 820 819
767 775 769 757 752 750 736 736 735 734 733 734 728 720 723 726 727 731 733 735 738 747 750 740 745 754 763 767 771 776 778 782 787 793 797 799 802 805 809 811 813 814 815 816 816 816 817 817 816
759 764 755 748 742 739 737 730 722 734 740 738 734 728 725 729 730 731 733 736 737 744 752 753 745 749 760 764 768 774 776 780 785 789 794 797 800 804 806 808 810 812 813 813 814 814 814 814 814
762 747 745 742 734 735 735 724 723 722 727 719 719 722 724 730 734 733 733 733 736 739 746 750 754 748 756 763 768 771 776 777 780 785 790 794 796 800 802 806 807 808 809 810 810 810 810 811 811
750 745 737 732 731 727 724 724 727 724 717 715 714 716 722 728 730 732 733 734 731 736 740 744 749 754 751 757 765 769 774 778 779 781 784 789 792 796 799 801 804 805 806 807 807 806 806 806 807
741 739 735 728 728 725 729 724 723 718 716 718 722 721 719 723 727 730 732 732 733 734 736 739 746 751 756 754 760 766 770 773 779 781 782 786 789 792 795 798 799 801 802 803 804 805 806 805 805
737 745 735 730 726 725 722 734 724 715 715 719 719 719 720 721 722 726 729 729 730 733 736 734 743 750 753 758 761 766 769 772 774 777 780 784 789 791 794 797 797 798 800 802 803 805 806 806 805
750 745 759 735 726 723 728 742 721 712 718 718 716 716 716 719 717 719 723 725 727 730 736 742 742 743 750 753 757 762 768 772 773 774 775 779 784 788 790 794 795 797 799 800 802 803 803 804 804
755 769 758 744 724 725 731 730 718 711 714 718 717 715 712 714 715 717 721 722 725 728 732 740 744 745 744 748 751 756 760 767 772 774 770 778 780 784 786 789 792 794 795 796 798 799 800 800 798
768 760 746 742 722 718 724 719 710 710 713 716 712 711 709 712 713 713 718 721 724 726 730 734 741 743 745 744 746 752 756 757 764 772 768 778 776 783 782 786 788 790 791 792 794 796 798 796 796
743 743 741 728 714 722 718 714 709 706 709 714 715 712 711 711 710 713 717 721 724 727 730 732 736 743 744 744 744 747 749 752 756 757 764 767 778 781 778 781 783 786 787 788 791 792 794 795 796
734 738 741 727 716 721 723 720 708 705 708 709 712 714 709 708 708 711 715 718 722 726 730 734 736 738 743 745 748 748 747 748 751 754 755 765 773 772 774 777 779 781 784 784 785 786 789 790 795
734 739 738 739 724 717 724 729 716 707 704 702 700 702 705 705 707 706 710 714 718 724 730 734 737 738 739 743 744 745 747 745 749 756 759 749 761 765 771 773 774 775 776 782 782 782 782 786 789
744 726 725 728 737 756 724 757 727 713 710 703 697 693 697 699 698 700 704 709 712 720 726 731 736 740 741 741 743 744 745 743 740 746 755 758 755 759 768 769 769 767 771 777 776 779 775 783 783
732 720 726 726 739 744 735 755 724 714 712 701 692 684 685 687 691 698 702 707 714 719 724 730 734 738 741 742 743 743 744 746 747 742 752 756 754 754 761 761 765 759 766 768 767 772 774 777 775
714 723 731 737 743 764 739 749 728 721 707 693 684 683 684 685 690 696 701 707 714 719 725 728 731 735 738 739 741 742 743 744 745 745 738 747 748 752 754 759 753 753 753 759 765 763 768 767 767
720 735 764 771 768 758 733 739 719 704 692 682 680 678 679 682 689 697 702 707 712 717 722 725 729 732 735 736 737 737 736 740 742 746 739 740 736 749 750 756 744 740 743 752 758 760 763 760 759
751 749 763 776 775 751 737 745 729 688 677 671 674 676 680 685 689 694 698 702 707 714 718 722 726 730 733 734 735 736 737 736 735 736 732 731 733 735 739 740 742 742 735 745 755 756 760 752 753
743 754 740 750 746 769 748 725 706 688 683 680 682 680 684 687 690 692 697 700 705 710 715 719 722 725 727 728 729 730 729 729 731 731 729 731 729 728 733 732 736 732 737 743 746 746 746 746 752
722 721 749 761 770 767 740 726 714 705 702 689 688 688 686 684 689 691 694 699 703 707 710 713 715 718 720 722 724 724 725 726 726 727 726 725 724 725 729 732 732 733 735 733 734 732 735 740 743
736 739 740 752 755 766 758 732 704 704 702 702 698 695 690 689 690 693 694 696 699 702 706 709 712 715 716 717 718 720 720 721 721 722 722 722 724 725 725 725 727 727 726 725 726 728 726 730 733
729 748 755 761 753 750 746 724 693 698 702 705 709 700 692 694 695 690 691 691 693 695 699 702 704 707 710 713 715 715 714 715 715 716 717 718 717 717 718 717 718 718 720 719 717 718 719 725 726